Location: Malvern Link
(52.1333°N, 2.3000°W)
Time: 04:58:50
(UTC+00:00)

SPROUT - Pass Details

Date: 01 July 2022
Orbit: 588 x 598 km, 97.9° (Epoch: 18 August)

Event Time Altitude Azimuth Distance (km) Brightness Sun altitude
Exits shadow 00:19:12 17° 140° (SE) 1,495 ? -14.7°
Maximum altitude 00:22:09 51° 70° (ENE) 745 ? -14.7°
Drops below altitude 10° 00:26:13 10° 354° (N) 1,931 ? -14.7°
Sets 00:28:25 0° 350° (N) 2,838 ? -14.7°
